When you browse on this site, cookies collect data to enhance your experience and personalize the content and advertising you see.
Visit our Privacy Policy to learn more. By continuing to use the site, you agree to this use of cookies and data.
  • In Hungary
  • List of Countries
  • For 7 days
  • Water Temperature
  • Weather Map
  • News
  • Weather Widgets
  • user-avatar
    Login

    Hourly Weather Male

    Today, 18 November, Monday

    Time Temperature Precipitation Wind Pressure Humidity
    00:00 +5°C° 0 mm 3 mps 767 mmHg 87%
    01:00 +5°C° 0 mm 3 mps 767 mmHg 89%
    02:00 +5°C° 0 mm 3 mps 767 mmHg 91%
    03:00 +4°C° 0 mm 3 mps 766 mmHg 92%
    04:00 +4°C° 0 mm 3 mps 766 mmHg 92%
    05:00 +4°C° 0 mm 3 mps 766 mmHg 93%
    06:00 +4°C° 0 mm 3 mps 766 mmHg 92%
    07:00 +4°C° 0 mm 3 mps 766 mmHg 92%
    08:00 +4°C° 0 mm 3 mps 766 mmHg 92%
    09:00 +7°C° 0 mm 3 mps 766 mmHg 89%
    10:00 +8°C° 0 mm 3 mps 766 mmHg 85%
    11:00 +9°C° 0 mm 3 mps 766 mmHg 82%
    12:00 +10°C° 0 mm 2 mps 766 mmHg 81%
    13:00 +10°C° 0 mm 2 mps 766 mmHg 80%
    14:00 +12°C° 0 mm 2 mps 766 mmHg 79%
    15:00 +12°C° 0 mm 2 mps 766 mmHg 80%
    16:00 +12°C° 0 mm 2 mps 766 mmHg 82%
    17:00 +12°C° 0 mm 2 mps 766 mmHg 84%
    18:00 +10°C° 0 mm 3 mps 766 mmHg 85%
    19:00 +10°C° 0 mm 3 mps 766 mmHg 87%
    20:00 +10°C° 0 mm 3 mps 766 mmHg 89%
    21:00 +10°C° 0 mm 3 mps 766 mmHg 89%
    22:00 +12°C° 0 mm 2 mps 766 mmHg 90%
    23:00 +12°C° 0 mm 2 mps 767 mmHg 90%

    Tomorrow, 19 November, Tuesday

    Time Temperature Precipitation Wind Pressure Humidity
    00:00 +12°C° 0 mm 2 mps 767 mmHg 90%
    01:00 +12°C° 0 mm 2 mps 767 mmHg 89%
    02:00 +12°C° 0 mm 2 mps 767 mmHg 89%
    03:00 +11°C° 0 mm 3 mps 767 mmHg 89%
    04:00 +11°C° 0 mm 3 mps 767 mmHg 90%
    05:00 +11°C° 0 mm 3 mps 767 mmHg 90%
    06:00 +11°C° 0 mm 3 mps 767 mmHg 90%
    07:00 +11°C° 0 mm 3 mps 767 mmHg 89%
    08:00 +11°C° 0 mm 4 mps 768 mmHg 89%
    09:00 +11°C° 0 mm 3 mps 768 mmHg 86%
    10:00 +12°C° 0 mm 3 mps 768 mmHg 83%
    11:00 +12°C° 0 mm 3 mps 768 mmHg 81%
    12:00 +12°C° 0 mm 3 mps 768 mmHg 80%
    13:00 +12°C° 0 mm 3 mps 768 mmHg 79%
    14:00 +12°C° 0 mm 3 mps 768 mmHg 77%
    15:00 +12°C° 0 mm 3 mps 768 mmHg 78%
    16:00 +12°C° 0 mm 3 mps 768 mmHg 78%
    17:00 +12°C° 0 mm 3 mps 767 mmHg 79%
    18:00 +11°C° 0 mm 3 mps 768 mmHg 79%
    19:00 +11°C° 0 mm 3 mps 768 mmHg 79%
    20:00 +11°C° 0 mm 3 mps 768 mmHg 79%
    21:00 +11°C° 0 mm 3 mps 768 mmHg 78%
    22:00 +10°C° 0 mm 3 mps 768 mmHg 78%
    23:00 +10°C° 0 mm 3 mps 767 mmHg 78%

    Day after tomorrow, 20 November, Wednesday

    Time Temperature Precipitation Wind Pressure Humidity
    00:00 +10°C° 0 mm 2 mps 768 mmHg 78%
    01:00 +10°C° 0 mm 2 mps 768 mmHg 78%
    02:00 +10°C° 0 mm 2 mps 768 mmHg 78%
    03:00 +10°C° 0 mm 3 mps 767 mmHg 78%
    04:00 +9°C° 0 mm 3 mps 767 mmHg 77%
    05:00 +9°C° 0 mm 3 mps 767 mmHg 77%
    06:00 +9°C° 0 mm 3 mps 767 mmHg 75%
    07:00 +8°C° 0 mm 3 mps 767 mmHg 73%
    08:00 +8°C° 0 mm 3 mps 767 mmHg 71%
    09:00 +9°C° 0 mm 3 mps 767 mmHg 66%
    10:00 +10°C° 0 mm 3 mps 767 mmHg 61%
    11:00 +11°C° 0 mm 4 mps 767 mmHg 55%
    12:00 +12°C° 0 mm 4 mps 767 mmHg 54%
    13:00 +12°C° 0 mm 4 mps 766 mmHg 52%
    14:00 +13°C° 0 mm 3 mps 766 mmHg 50%
    15:00 +12°C° 0 mm 4 mps 766 mmHg 53%
    16:00 +11°C° 0 mm 4 mps 766 mmHg 56%
    17:00 +10°C° 0 mm 4 mps 766 mmHg 59%
    18:00 +10°C° 0 mm 4 mps 766 mmHg 62%
    19:00 +8°C° 0 mm 5 mps 766 mmHg 65%
    20:00 +8°C° 0 mm 5 mps 766 mmHg 68%
    21:00 +7°C° 0 mm 5 mps 767 mmHg 72%
    22:00 +7°C° 0 mm 5 mps 767 mmHg 75%
    23:00 +7°C° 0 mm 5 mps 767 mmHg 79%

    21 November, Thursday

    Time Temperature Precipitation Wind Pressure Humidity
    00:00 +6°C° 0 mm 5 mps 767 mmHg 79%
    01:00 +5°C° 0 mm 6 mps 767 mmHg 79%
    02:00 +5°C° 0 mm 6 mps 767 mmHg 79%
    03:00 +5°C° 0 mm 6 mps 767 mmHg 75%
    04:00 +4°C° 0 mm 7 mps 767 mmHg 71%
    05:00 +4°C° 0 mm 7 mps 767 mmHg 66%
    06:00 +5°C° 0 mm 7 mps 767 mmHg 69%
    07:00 +5°C° 0 mm 8 mps 767 mmHg 71%
    08:00 +5°C° 0 mm 8 mps 768 mmHg 73%
    09:00 +5°C° 0 mm 8 mps 768 mmHg 70%
    10:00 +5°C° 0 mm 8 mps 768 mmHg 67%
    11:00 +4°C° 0 mm 8 mps 768 mmHg 64%
    12:00 +4°C° 0 mm 8 mps 768 mmHg 63%
    13:00 +2°C° 0 mm 8 mps 768 mmHg 62%
    14:00 +3°C° 0 mm 7 mps 768 mmHg 61%
    15:00 +3°C° 0 mm 7 mps 769 mmHg 60%
    16:00 +2°C° 0 mm 6 mps 769 mmHg 59%
    17:00 +2°C° 0 mm 6 mps 769 mmHg 58%
    18:00 +2°C° 0 mm 6 mps 769 mmHg 57%
    19:00 +1°C° 0 mm 6 mps 770 mmHg 55%
    20:00 0°C° 0 mm 7 mps 770 mmHg 54%
    21:00 -1°C° 0 mm 7 mps 770 mmHg 55%
    22:00 -1°C° 0 mm 7 mps 770 mmHg 55%
    23:00 -2°C° 0 mm 7 mps 770 mmHg 56%

    22 November, Friday

    Time Temperature Precipitation Wind Pressure Humidity
    00:00 -2°C° 0 mm 7 mps 770 mmHg 57%
    01:00 -3°C° 0 mm 7 mps 770 mmHg 58%
    02:00 -3°C° 0 mm 7 mps 770 mmHg 59%
    03:00 -4°C° 0 mm 7 mps 770 mmHg 60%
    04:00 -4°C° 0 mm 6 mps 770 mmHg 61%
    05:00 -5°C° 0 mm 6 mps 770 mmHg 63%
    06:00 -5°C° 0 mm 6 mps 770 mmHg 62%
    07:00 -5°C° 0 mm 6 mps 770 mmHg 62%
    08:00 -5°C° 0 mm 6 mps 770 mmHg 61%
    09:00 -4°C° 0 mm 6 mps 770 mmHg 57%
    10:00 -4°C° 0 mm 6 mps 770 mmHg 54%
    11:00 -3°C° 0 mm 6 mps 770 mmHg 50%
    12:00 -2°C° 0 mm 6 mps 770 mmHg 49%
    13:00 -2°C° 0 mm 6 mps 770 mmHg 49%
    14:00 0°C° 0 mm 5 mps 769 mmHg 48%
    15:00 -1°C° 0 mm 5 mps 769 mmHg 54%
    16:00 -1°C° 0 mm 5 mps 769 mmHg 61%
    17:00 -2°C° 0 mm 5 mps 770 mmHg 67%
    18:00 -2°C° 0 mm 5 mps 770 mmHg 70%
    19:00 -2°C° 0 mm 5 mps 769 mmHg 74%
    20:00 -2°C° 0 mm 5 mps 769 mmHg 77%
    21:00 -2°C° 0 mm 5 mps 769 mmHg 77%
    22:00 -1°C° 0 mm 5 mps 769 mmHg 76%
    23:00 -1°C° 0 mm 5 mps 769 mmHg 76%

    23 November, Saturday

    Time Temperature Precipitation Wind Pressure Humidity
    00:00 -1°C° 0 mm 5 mps 769 mmHg 76%
    01:00 -1°C° 0 mm 5 mps 769 mmHg 77%
    02:00 -1°C° 0 mm 5 mps 769 mmHg 77%
    03:00 0°C° 0 mm 5 mps 769 mmHg 78%
    04:00 0°C° 0 mm 5 mps 768 mmHg 78%
    05:00 -1°C° 0 mm 6 mps 768 mmHg 79%
    06:00 0°C° 0 mm 5 mps 768 mmHg 78%
    07:00 -1°C° 0 mm 5 mps 768 mmHg 78%
    08:00 -1°C° 0 mm 5 mps 768 mmHg 77%
    09:00 0°C° 0 mm 5 mps 768 mmHg 74%
    10:00 +1°C° 0 mm 5 mps 768 mmHg 70%
    11:00 +1°C° 0 mm 5 mps 769 mmHg 66%
    12:00 +1°C° 0 mm 5 mps 768 mmHg 64%
    13:00 +2°C° 0 mm 5 mps 768 mmHg 62%
    14:00 +2°C° 0 mm 5 mps 767 mmHg 60%
    15:00 +2°C° 0 mm 5 mps 768 mmHg 63%
    16:00 +1°C° 0 mm 5 mps 768 mmHg 65%
    17:00 +1°C° 0 mm 5 mps 768 mmHg 67%
    18:00 +1°C° 0 mm 5 mps 768 mmHg 69%
    19:00 +1°C° 0 mm 5 mps 768 mmHg 71%
    20:00 +1°C° 0 mm 5 mps 768 mmHg 73%
    21:00 +1°C° 0 mm 5 mps 768 mmHg 74%
    22:00 +1°C° 0 mm 5 mps 768 mmHg 75%
    23:00 +1°C° 0 mm 4 mps 768 mmHg 76%
    Show more